Weather History for KAPY - November, 2013

Change the Weather History Date:

Tuesday, November 26, 2013

  Actual Average (KLRD) Record (KLRD)
Temperature  
Mean Temperature 50 °F 62 °F  
Max Temperature 57 °F 72 °F 97 °F (1965)
Min Temperature 43 °F 51 °F 27 °F (1932)
Degree Days  
Heating Degree Days 15 6  
Month to date heating degree days 79  
Since 1 July heating degree days 91  
Cooling Degree Days 0 2  
Month to date cooling degree days 117  
Year to date cooling degree days 4246  
Moisture  
Dew Point 37 °F    
Average Humidity 67    
Maximum Humidity 93    
Minimum Humidity 38    
Precipitation  
Precipitation 0.03 in 0.03 in 0.77 in (1982)
Month to date precipitation 1.06  
Year to date precipitation 19.19  
Sea Level Pressure  
Sea Level Pressure 30.28 in    
Wind  
Wind Speed 10 mph (NW)    
Max Wind Speed 24 mph    
Max Gust Speed 32 mph    
Visibility 10 miles    
Events Rain    
T = Trace of Precipitation, MM = Missing Value Source: NWS Daily Summary

Daily Weather History Graph

Daily Weather History Graph

Search for Another Location

Airport or City:

Trip Planner

Search our weather history database for the weather conditions in past years. The results will help you decide how hot, cold, wet, or windy it might be!

Date:

Astronomy

Nov. 26, 2013 Rise Set
Actual Time 7:05 AM CST 5:43 PM CST
Civil Twilight 6:40 AM CST 6:08 PM CST
Nautical Twilight 6:11 AM CST 6:36 PM CST
Astronomical Twilight 5:43 AM CST 7:04 PM CST
Moon 12:45 AM CST (11/26) 1:18 PM CST (11/26)
Length of Visible Light 11h 27m
Length of Day
10h 37m
Last Quarter, 41% of the Moon is Illuminated
Nov 26
Last Quarter
Dec 2
New
Dec 9
First Quarter
Dec 17
Full
Dec 25
Last Quarter

Hourly Weather History & Observations

Time (CST) Temp. Windchill Dew Point Humidity Pressure Visibility Wind Dir Wind Speed Gust Speed Precip Events Conditions
12:15 AM 45.7 °F 42.0 °F 43.7 °F 93% 30.18 in 10.0 mi WNW 6.9 mph - N/A   Drizzle
12:35 AM 45.7 °F 42.0 °F 43.7 °F 93% 30.17 in 10.0 mi NW 6.9 mph - N/A   Light Drizzle
12:55 AM 45.5 °F 43.2 °F 43.7 °F 93% 30.17 in 10.0 mi NW 4.6 mph - 0.03 in Rain Light Rain
1:15 AM 45.5 °F 42.5 °F 43.7 °F 93% 30.17 in 10.0 mi WNW 5.8 mph - N/A   Light Drizzle
1:35 AM 45.7 °F 44.4 °F 43.7 °F 93% 30.18 in 10.0 mi WNW 3.5 mph - N/A   Overcast
1:55 AM 45.7 °F 42.0 °F 43.7 °F 93% 30.17 in 10.0 mi WNW 6.9 mph - N/A   Mostly Cloudy
2:15 AM 45.7 °F 42.7 °F 43.7 °F 93% 30.18 in 7.0 mi WNW 5.8 mph - N/A   Scattered Clouds
2:35 AM 45.3 °F 42.3 °F 43.3 °F 93% 30.17 in 7.0 mi NW 5.8 mph - N/A   Clear
2:55 AM 44.6 °F 42.2 °F 42.8 °F 93% 30.17 in 7.0 mi NW 4.6 mph - N/A   Scattered Clouds
3:15 AM 44.1 °F 40.8 °F 42.3 °F 93% 30.17 in 5.0 mi NW 5.8 mph - N/A   Clear
3:35 AM 44.6 °F 40.7 °F 42.8 °F 93% 30.18 in 5.0 mi NW 6.9 mph - N/A   Scattered Clouds
3:55 AM 45.0 °F 41.2 °F 43.2 °F 93% 30.18 in 7.0 mi NW 6.9 mph - N/A   Mostly Cloudy
5:35 AM 44.8 °F 41.0 °F 43.0 °F 93% 30.18 in 7.0 mi NNW 6.9 mph - N/A   Mostly Cloudy
5:55 AM 44.4 °F 41.2 °F 42.4 °F 93% 30.19 in 7.0 mi NW 5.8 mph - N/A   Scattered Clouds
6:15 AM 44.1 °F 40.8 °F 42.3 °F 93% 30.20 in 7.0 mi NW 5.8 mph - N/A   Mostly Cloudy
6:35 AM 44.6 °F 39.7 °F 42.6 °F 93% 30.21 in 10.0 mi NNW 9.2 mph - N/A   Mostly Cloudy
6:55 AM 43.7 °F 38.6 °F 41.5 °F 92% 30.22 in 10.0 mi NW 9.2 mph - N/A   Scattered Clouds
7:15 AM 43.7 °F 37.7 °F 41.0 °F 90% 30.23 in 10.0 mi NW 11.5 mph - N/A   Clear
7:35 AM 43.7 °F 39.1 °F 40.6 °F 89% 30.25 in 10.0 mi NW 8.1 mph - N/A   Clear
8:15 AM 45.3 °F 39.0 °F 40.8 °F 84% 30.26 in 10.0 mi NNW 13.8 mph 19.6 mph N/A   Mostly Cloudy
8:35 AM 45.9 °F 39.1 °F 40.5 °F 81% 30.28 in 10.0 mi NW 16.1 mph 21.9 mph N/A   Scattered Clouds
8:55 AM 46.6 °F - 39.9 °F 78% 30.28 in 10.0 mi NNW 12.7 mph 24.2 mph N/A   Clear
9:15 AM 48.2 °F - 38.8 °F 70% 30.29 in 10.0 mi NNW 19.6 mph - N/A   Scattered Clouds
9:35 AM 48.9 °F - 37.6 °F 65% 30.30 in 10.0 mi NNW 16.1 mph 23.0 mph N/A   Scattered Clouds
9:55 AM 48.4 °F - 37.6 °F 66% 30.31 in 10.0 mi NNW 13.8 mph 20.7 mph N/A   Mostly Cloudy
10:15 AM 48.9 °F - 36.5 °F 62% 30.31 in 10.0 mi NNW 13.8 mph 18.4 mph N/A   Overcast
10:35 AM 49.1 °F - 35.8 °F 60% 30.32 in 10.0 mi NNW 18.4 mph 25.3 mph N/A   Overcast
10:55 AM 49.5 °F - 36.3 °F 61% 30.32 in 10.0 mi NNW 18.4 mph 27.6 mph N/A   Overcast
11:15 AM 50.2 °F - 36.0 °F 58% 30.31 in 10.0 mi NNW 17.3 mph 25.3 mph N/A   Overcast
11:35 AM 51.3 °F - 35.4 °F 55% 30.31 in 10.0 mi NNW 16.1 mph 27.6 mph N/A   Overcast
11:55 AM 52.2 °F - 34.9 °F 52% 30.30 in 10.0 mi NW 17.3 mph 24.2 mph N/A   Overcast
12:55 PM 55.2 °F - 32.7 °F 43% 30.27 in 10.0 mi NNW 20.7 mph 31.1 mph N/A   Scattered Clouds
1:55 PM 56.7 °F - 32.2 °F 40% 30.25 in 10.0 mi NW 17.3 mph 28.8 mph N/A   Clear
2:15 PM 56.5 °F - 32.0 °F 39% 30.25 in 10.0 mi NNW 24.2 mph 32.2 mph N/A   Clear
2:55 PM 57.2 °F - 32.0 °F 38% 30.24 in 10.0 mi NW 17.3 mph 29.9 mph N/A   Clear
3:15 PM 57.6 °F - 32.0 °F 38% 30.24 in 10.0 mi NW 21.9 mph 29.9 mph N/A   Clear
3:35 PM 57.7 °F - 32.2 °F 38% 30.24 in 10.0 mi NW 18.4 mph 31.1 mph N/A   Clear
3:55 PM 57.2 °F - 32.0 °F 38% 30.25 in 10.0 mi NNW 20.7 mph 28.8 mph N/A   Clear
4:15 PM 56.5 °F - 31.8 °F 39% 30.25 in 10.0 mi NNW 20.7 mph 27.6 mph N/A   Clear
4:35 PM 56.3 °F - 32.0 °F 40% 30.25 in 10.0 mi NNW 21.9 mph 31.1 mph N/A   Clear
4:55 PM 55.6 °F - 32.0 °F 41% 30.25 in 10.0 mi NNW 17.3 mph 24.2 mph N/A   Clear
5:15 PM 54.9 °F - 32.5 °F 43% 30.26 in 10.0 mi NW 12.7 mph 23.0 mph N/A   Clear
5:35 PM 54.5 °F - 32.2 °F 43% 30.27 in 10.0 mi NW 17.3 mph 26.5 mph N/A   Clear
5:55 PM 52.7 °F - 32.2 °F 46% 30.29 in 10.0 mi NW 16.1 mph 25.3 mph N/A   Clear
6:15 PM 51.3 °F - 33.1 °F 50% 30.30 in 10.0 mi NNW 11.5 mph 18.4 mph N/A   Clear
6:35 PM 50.4 °F - 33.8 °F 53% 30.31 in 10.0 mi NNW 8.1 mph - N/A   Clear
6:55 PM 49.3 °F - 34.2 °F 56% 30.32 in 10.0 mi NW 5.8 mph - N/A   Clear
7:15 PM 47.7 °F - 34.3 °F 60% 30.34 in 10.0 mi WNW 5.8 mph - N/A   Clear
7:35 PM 46.4 °F 43.5 °F 34.7 °F 64% 30.34 in 10.0 mi WNW 5.8 mph - N/A   Clear
7:55 PM 46.4 °F 44.3 °F 34.5 °F 63% 30.35 in 10.0 mi WNW 4.6 mph - N/A   Clear
8:15 PM 45.3 °F 42.3 °F 34.7 °F 66% 30.35 in 10.0 mi NW 5.8 mph - N/A   Clear
8:35 PM 45.0 °F 41.8 °F 34.7 °F 67% 30.36 in 10.0 mi NW 5.8 mph - N/A   Clear
8:55 PM 45.1 °F 42.0 °F 34.2 °F 65% 30.36 in 10.0 mi NW 5.8 mph - N/A   Clear
9:15 PM 45.1 °F 42.0 °F 33.8 °F 65% 30.36 in 10.0 mi NW 5.8 mph - N/A   Clear
9:35 PM 44.6 °F 41.4 °F 33.4 °F 65% 30.38 in 10.0 mi WNW 5.8 mph - N/A   Clear
9:55 PM 46.0 °F 43.9 °F 32.0 °F 58% 30.39 in 10.0 mi WNW 4.6 mph - N/A   Clear
10:15 PM 46.8 °F - 31.8 °F 56% 30.40 in 10.0 mi WNW 4.6 mph - N/A   Clear
10:35 PM 45.7 °F 42.7 °F 32.0 °F 59% 30.40 in 10.0 mi NW 5.8 mph - N/A   Clear
10:55 PM 45.5 °F 42.5 °F 31.8 °F 59% 30.41 in 10.0 mi WNW 5.8 mph - N/A   Clear
11:15 PM 44.6 °F 40.7 °F 32.0 °F 61% 30.41 in 10.0 mi NW 6.9 mph - N/A   Clear
11:35 PM 45.5 °F 41.3 °F 32.0 °F 59% 30.41 in 10.0 mi NW 8.1 mph - N/A   Clear
11:55 PM 44.6 °F 41.4 °F 32.0 °F 61% 30.41 in 10.0 mi NW 5.8 mph - N/A   Clear